Temperature
17 17 18 18 18 18 18 18 17 17 17 17 17 17 17 17 17 17 17 17 17 17 17 17 17 17 17 17 17 17 18 18 18 18 18 18 18 18 18 18 18 18 18
17 17 17 17 17 17 17 17 17 17 17 17 17 17 16 16 17 17 17 17 17 17 17 17 17 17 17 17 17 17 17 17 17 18 18 17 18 18 18 18 18 18 18
17 17 17 17 17 17 17 17 17 17 17 16 16 16 16 16 16 16 16 16 16 16 16 17 17 17 17 17 17 17 17 17 17 17 17 17 17 18 18 18 18 18 18
17 17 17 17 17 17 17 17 17 17 17 16 16 16 16 16 16 16 16 16 16 16 16 16 17 17 17 17 17 17 17 17 17 17 17 17 17 18 18 18 18 18 18
17 17 17 17 17 17 17 17 17 16 16 16 16 16 16 16 16 16 16 16 16 16 16 16 16 16 16 16 17 17 17 17 17 17 17 17 17 17 18 18 18 18 18
17 17 17 17 17 17 17 17 16 16 16 16 16 16 15 15 15 15 16 16 16 16 16 16 16 16 16 16 16 16 17 17 17 17 17 17 17 17 17 18 18 18 18
17 17 17 17 17 17 17 17 16 16 16 16 16 16 16 15 15 15 15 15 16 16 16 16 16 16 16 16 16 16 16 17 17 17 17 17 17 17 17 17 17 18 18
18 17 17 17 17 17 17 16 16 16 16 16 16 16 16 16 16 16 15 15 15 15 16 16 16 16 16 16 16 16 16 16 17 17 17 17 17 17 17 17 17 18 18
18 18 17 17 17 17 17 16 16 16 16 16 16 16 16 16 15 16 15 15 15 15 15 16 16 16 16 16 16 16 16 16 16 17 17 17 17 17 17 17 17 17 18
18 18 17 17 17 17 17 16 16 16 16 16 16 16 16 16 15 15 15 15 15 15 15 16 16 16 16 16 16 16 16 16 16 16 17 17 17 17 17 17 17 17 17
18 18 18 17 17 17 17 16 16 16 16 16 16 16 16 15 15 15 15 15 15 16 16 16 16 16 16 16 16 16 16 16 16 16 16 17 17 17 17 17 17 17 17
18 18 18 17 17 17 17 17 16 16 16 16 16 16 16 15 15 15 15 15 15 16 16 16 16 16 16 16 16 16 16 16 16 16 16 16 16 17 17 17 17 17 17
18 18 18 18 17 17 17 17 16 16 16 16 16 16 16 16 15 15 15 15 16 16 16 16 16 16 16 16 16 16 16 16 16 16 16 16 16 16 16 17 17 17 17
18 18 18 18 18 17 17 17 16 16 16 16 16 16 16 16 15 15 15 15 16 16 16 16 16 16 16 16 16 16 16 16 16 16 16 16 16 16 16 16 16 17 17
19 18 18 18 18 17 17 17 17 16 16 16 16 16 16 15 16 15 15 15 15 16 16 16 16 16 16 16 16 16 16 16 16 16 16 16 16 16 16 16 16 16 17
19 19 18 18 18 18 17 17 17 16 16 16 16 16 16 16 16 15 15 15 15 15 16 16 16 16 16 16 16 16 16 16 16 16 16 16 16 16 16 16 16 16 16
19 19 18 18 18 18 17 17 17 16 16 16 16 16 16 15 15 15 15 15 15 16 16 16 16 16 16 16 16 16 16 16 16 16 16 16 16 16 16 16 16 16 16
19 19 18 18 18 17 17 17 17 16 16 16 16 16 16 15 15 15 15 15 15 15 16 16 16 16 16 16 16 16 16 16 16 16 16 15 16 16 16 16 16 16 16
19 19 18 18 18 17 17 17 17 16 16 16 16 16 16 15 15 15 15 15 15 15 16 16 16 16 16 16 16 16 16 16 16 16 15 15 15 16 16 16 16 16 16
19 19 18 18 18 17 17 17 17 16 16 16 16 16 15 15 15 15 15 15 15 16 16 16 16 16 16 16 16 16 15 15 15 15 15 15 15 15 15 15 16 16 16
19 19 18 18 18 17 17 17 17 16 16 16 16 16 15 15 15 15 15 15 15 15 15 15 16 16 16 16 16 15 15 15 15 15 15 15 15 15 15 15 15 15 16
19 19 18 18 18 17 17 17 17 16 16 16 16 16 15 15 15 15 15 15 15 15 15 15 16 16 16 16 16 15 15 15 15 15 15 15 15 15 15 15 15 15 15
19 19 18 18 18 18 17 17 16 16 16 16 16 16 15 15 15 15 15 15 15 15 15 15 15 16 16 16 16 16 15 15 15 15 15 15 15 15 15 15 15 15 15
19 19 19 18 18 18 17 17 17 17 16 16 16 16 15 15 15 15 15 15 15 15 15 15 15 15 15 15 15 15 15 15 15 14 14 14 14 14 14 14 14 14 15
19 19 19 18 18 18 17 17 17 17 16 16 16 16 16 15 15 15 15 15 15 15 15 15 15 15 15 15 15 15 15 15 15 15 14 14 14 14 14 14 14 14 14
19 19 19 18 18 18 18 17 17 17 16 16 16 16 16 15 15 15 15 15 15 15 15 15 15 15 15 15 15 15 15 15 15 15 14 14 14 14 14 14 14 14 14
Wind_Speed
2 6 11 13 13 14 14 13 13 13 14 13 13 13 12 12 11 11 11 10 10 9 9 9 8 8 8 8 8 7 7 7 6 6 5 4 5 6 6 6 6 5 5
6 9 12 13 13 14 13 13 13 13 13 13 12 12 12 11 11 10 10 10 9 9 8 8 8 7 7 7 7 7 7 7 6 5 4 4 5 5 5 6 6 5 5
7 10 12 13 13 13 13 13 13 13 13 12 12 12 11 11 10 10 9 9 8 8 8 7 7 7 7 7 7 7 7 7 6 5 4 4 4 5 5 5 5 6 5
9 10 12 13 13 13 13 13 12 12 12 12 11 11 10 10 10 9 9 8 8 7 7 7 6 6 6 6 6 6 6 6 6 5 4 3 3 5 6 5 5 5 5
9 10 13 13 13 13 12 12 12 11 11 10 10 9 9 9 9 9 8 8 8 7 7 6 6 6 5 6 5 5 6 6 6 5 4 4 4 5 5 5 4 5 5
8 10 13 13 13 12 12 11 10 10 9 9 9 8 7 7 7 7 7 7 6 6 6 5 5 5 5 5 5 5 5 6 6 5 4 3 4 5 5 5 4 4 4
7 9 12 13 12 11 11 10 9 8 8 8 7 6 6 6 5 5 6 6 5 5 5 5 4 5 5 4 5 5 5 5 5 5 3 3 4 5 5 5 4 4 4
8 9 11 12 12 11 10 9 8 7 6 6 5 4 4 4 4 3 4 4 4 4 4 4 4 4 5 5 5 5 5 4 5 5 4 3 5 5 6 5 5 5 5
8 8 8 9 10 10 9 8 7 5 4 3 2 2 2 2 2 2 2 3 3 3 4 4 4 4 5 5 4 4 5 5 5 4 3 3 5 6 6 6 6 5 5
6 6 6 6 7 7 6 6 5 3 2 1 2 3 2 1 1 1 2 2 3 4 5 5 5 5 5 4 3 3 4 4 4 4 3 3 6 7 7 7 6 6 6
6 5 5 5 6 6 5 4 3 1 2 2 3 3 3 2 2 3 3 4 4 6 6 6 6 6 5 4 4 3 3 3 3 3 3 4 7 8 8 7 7 7 7
7 6 5 5 6 6 4 4 2 1 2 3 3 4 4 2 2 2 5 5 6 6 6 7 6 6 5 4 4 3 3 2 2 2 3 5 7 8 8 8 7 7 7
7 6 7 6 6 6 4 4 2 2 3 4 4 5 5 5 5 5 5 7 7 7 6 6 7 6 5 3 3 3 3 3 3 3 4 6 7 7 8 8 7 7 7
7 7 7 6 5 5 5 4 3 3 3 4 5 6 7 4 4 4 4 6 6 5 5 5 4 5 5 4 4 4 4 4 4 4 5 6 7 7 8 8 7 7 7
7 6 6 5 5 5 5 3 4 3 4 7 8 8 8 5 3 4 4 6 6 6 5 4 4 4 4 4 5 4 4 5 5 5 4 6 7 7 7 8 7 7 7
7 7 6 6 6 6 4 3 4 5 7 9 9 9 9 7 5 4 4 5 6 6 6 5 5 4 3 4 5 5 5 6 5 5 5 6 7 7 7 7 7 8 8
8 8 7 7 6 7 5 5 6 7 8 8 8 10 10 9 7 6 4 4 6 8 8 7 7 6 4 5 5 5 5 5 5 6 6 6 6 7 8 8 8 8 8
8 7 7 8 8 7 6 6 6 8 9 8 9 11 11 11 10 8 4 4 7 9 7 4 5 5 5 5 5 5 4 5 5 6 6 6 7 7 8 9 9 9 9
8 8 7 7 8 7 6 6 7 8 8 8 9 10 11 11 11 9 5 5 8 7 5 5 5 4 4 4 4 5 5 5 4 7 6 7 7 8 8 10 11 11 11
8 8 8 7 7 7 5 5 5 5 5 7 8 9 10 10 11 9 6 7 7 5 6 5 5 5 4 3 5 7 6 5 5 5 5 6 8 9 10 10 10 10 12
8 8 7 7 6 5 4 4 4 3 2 3 5 9 10 10 10 9 6 6 6 6 5 5 4 6 5 3 4 5 6 6 7 6 5 5 7 8 10 10 10 10 10
8 8 7 7 6 5 4 3 3 3 2 2 3 7 9 10 9 8 6 5 5 5 7 7 5 4 5 5 3 4 4 6 5 7 6 6 6 7 8 9 10 11 11
8 8 8 7 7 6 5 5 4 4 4 4 4 3 5 9 9 8 7 6 5 5 5 6 6 5 4 5 4 4 4 1 2 5 6 6 6 6 5 7 10 10 11
8 8 8 8 7 6 6 7 6 4 3 1 1 2 4 7 8 8 8 7 6 4 5 5 6 4 5 4 4 4 3 3 3 2 4 5 6 7 6 7 8 10 11
9 8 8 8 7 6 7 7 7 5 3 2 2 3 4 5 6 7 7 7 5 4 5 6 6 6 5 4 3 2 4 4 4 4 2 4 4 5 5 6 7 9 11
8 8 8 8 6 6 7 7 7 7 5 5 3 3 2 3 3 5 6 6 5 4 5 5 5 7 6 6 5 5 3 3 2 3 3 2 2 3 4 5 7 8 10
Wind_Direction
89 105 105 101 99 97 94 93 90 87 84 82 78 76 75 74 74 73 73 72 70 67 66 66 68 64 59 54 52 54 57 57 58 56 62 71 72 72 74 75 71 75 81
129 115 109 104 102 100 96 93 90 87 84 82 79 76 73 71 70 69 69 69 67 66 64 63 65 62 59 54 47 48 49 47 48 55 58 72 79 81 81 80 77 84 82
118 114 110 108 106 103 99 95 91 87 85 82 79 76 73 70 68 67 65 63 63 62 61 59 57 59 56 50 44 41 39 39 43 50 58 73 83 92 93 86 80 78 80
121 118 115 113 109 106 102 97 92 89 86 83 80 77 73 71 68 66 63 60 61 61 59 55 51 54 51 44 38 34 32 33 36 50 55 74 97 100 98 92 79 75 75
119 121 122 118 115 111 105 99 93 91 88 84 81 78 75 71 68 66 63 59 58 57 56 52 47 46 43 41 35 32 35 35 40 51 51 79 103 109 104 97 84 78 73
125 130 130 126 121 116 109 103 98 95 93 88 83 80 76 74 70 64 60 57 54 51 49 45 38 33 32 35 33 33 39 44 49 52 51 85 115 114 109 102 86 78 74
135 139 137 132 129 124 118 113 107 102 96 91 84 80 76 72 69 63 60 57 51 44 39 34 27 20 17 21 25 30 35 46 53 53 51 92 114 109 108 100 86 77 70
145 149 145 142 139 134 128 122 115 109 102 97 90 79 72 68 63 62 60 54 48 36 25 16 9 6 4 6 16 27 33 47 52 48 55 89 113 107 102 98 89 76 64
149 148 149 151 148 143 139 133 127 122 114 100 81 57 56 57 49 52 51 38 32 20 9 1 352 348 348 355 13 32 46 54 61 53 62 83 109 106 102 98 89 74 60
150 152 156 156 153 152 154 151 147 141 125 55 22 31 42 9 327 334 350 352 353 356 355 347 344 345 346 349 10 39 51 57 57 56 66 85 105 106 100 95 87 75 62
160 164 167 170 168 172 176 175 166 136 56 28 18 30 33 13 319 293 320 332 341 347 350 351 350 356 359 3 24 39 55 65 63 67 82 95 106 105 98 92 84 75 65
168 177 178 177 182 186 180 155 158 82 49 36 30 42 50 46 6 345 348 352 357 357 357 4 8 14 22 27 38 60 76 66 83 97 99 107 108 101 95 89 82 73 66
167 164 169 170 168 163 145 135 126 73 37 35 45 54 62 55 38 28 15 5 6 9 8 7 16 20 33 46 56 74 84 80 94 95 101 106 103 97 91 86 81 72 66
150 153 160 155 143 141 130 121 113 78 46 40 45 63 74 61 41 21 10 4 8 6 12 17 19 23 36 53 72 79 89 100 103 95 97 99 97 92 89 83 77 69 64
140 140 142 135 131 125 117 113 99 75 62 59 55 57 69 69 44 29 21 19 16 19 26 30 34 36 41 47 59 72 84 98 104 100 86 86 87 81 81 80 76 69 63
135 132 122 116 118 112 105 104 93 80 68 62 57 55 60 63 58 50 34 27 24 25 34 42 46 50 43 54 52 60 75 85 91 96 84 71 75 71 72 76 72 69 62
132 126 121 120 110 105 102 96 91 85 77 64 56 55 54 56 59 57 41 28 25 33 38 43 39 45 47 53 51 52 67 73 77 80 77 68 65 64 65 67 65 63 58
131 125 125 120 109 101 98 93 91 85 78 65 58 57 53 54 58 58 46 28 33 39 37 41 36 41 41 49 50 43 50 61 66 75 75 68 62 58 57 60 61 58 54
131 125 117 111 106 103 98 94 87 81 74 68 60 56 55 55 58 63 54 36 41 42 31 37 40 46 50 47 56 52 43 49 53 71 68 68 66 64 63 59 56 53 50
131 123 118 111 109 106 95 85 70 61 54 59 59 57 56 54 56 61 55 39 43 43 33 34 43 43 54 54 67 56 42 41 48 53 54 60 66 66 66 59 53 48 46
130 125 125 122 123 116 104 99 92 77 52 41 49 55 56 56 59 63 56 43 42 46 39 38 45 48 40 41 63 43 31 37 47 41 42 51 54 59 65 60 54 48 42
143 138 133 133 131 125 124 123 125 123 89 55 42 47 53 57 58 65 62 54 46 48 41 39 46 53 36 34 80 75 38 19 17 27 33 49 48 53 57 56 52 47 44
151 153 147 144 133 125 118 102 86 65 49 38 37 30 36 55 59 65 67 66 54 54 50 43 49 65 59 33 50 108 106 89 358 3 20 33 37 44 43 53 52 45 43
160 152 147 143 132 127 122 119 122 120 118 139 103 46 32 48 57 66 70 70 62 56 55 49 56 63 73 51 32 46 91 135 116 39 3 14 33 40 36 46 45 39 39
153 147 146 138 134 132 126 130 126 122 130 117 85 65 43 34 48 63 72 70 63 58 60 57 57 60 66 71 59 56 60 56 66 105 61 5 20 20 28 34 37 36 35
145 142 142 140 139 136 130 132 134 134 130 118 107 92 56 33 30 48 67 69 69 66 64 63 63 64 65 69 64 61 74 79 71 89 100 53 34 4 21 27 28 29 30
Height
1541 1541 1541 1541 1540 1540 1540 1540 1540 1539 1539 1539 1539 1538 1538 1538 1537 1537 1536 1536 1536 1536 1535 1535 1535 1534 1534 1534 1534 1534 1533 1533 1533 1533 1533 1533 1533 1533 1533 1532 1532 1532 1532
1542 1542 1542 1541 1541 1541 1541 1541 1540 1540 1540 1539 1539 1539 1539 1538 1538 1537 1537 1536 1536 1535 1535 1535 1535 1534 1534 1534 1534 1533 1533 1533 1533 1533 1533 1533 1533 1533 1533 1533 1533 1532 1532
1542 1542 1542 1542 1542 1542 1542 1541 1541 1541 1541 1540 1540 1540 1539 1539 1538 1537 1537 1536 1536 1535 1535 1535 1535 1534 1534 1534 1533 1533 1533 1533 1533 1533 1533 1533 1533 1534 1533 1533 1533 1533 1533
1543 1543 1543 1543 1543 1543 1543 1543 1542 1542 1542 1541 1541 1540 1540 1539 1538 1538 1537 1536 1536 1535 1535 1534 1534 1534 1534 1534 1533 1533 1533 1533 1533 1533 1533 1533 1533 1534 1534 1533 1533 1533 1533
1544 1544 1544 1544 1544 1544 1544 1544 1543 1543 1542 1542 1541 1541 1540 1539 1539 1538 1537 1536 1536 1535 1535 1534 1534 1534 1534 1534 1533 1533 1533 1533 1533 1533 1533 1533 1534 1534 1534 1533 1533 1533 1533
1545 1546 1546 1546 1546 1545 1545 1545 1544 1544 1543 1543 1542 1542 1541 1540 1539 1538 1537 1537 1536 1535 1535 1534 1534 1534 1534 1534 1533 1533 1533 1533 1533 1533 1533 1534 1534 1534 1534 1534 1533 1533 1533
1546 1547 1547 1547 1547 1547 1547 1546 1546 1545 1545 1544 1544 1543 1542 1541 1540 1539 1538 1537 1536 1536 1535 1535 1534 1534 1534 1534 1534 1533 1534 1534 1534 1534 1534 1534 1534 1534 1534 1534 1533 1533 1532
1548 1548 1548 1548 1548 1548 1548 1548 1547 1547 1546 1546 1545 1544 1543 1542 1541 1540 1539 1538 1537 1537 1536 1535 1535 1535 1534 1534 1534 1534 1534 1534 1534 1534 1534 1534 1534 1534 1534 1533 1533 1533 1532
1550 1550 1550 1550 1550 1550 1550 1550 1549 1548 1548 1547 1546 1545 1545 1543 1542 1541 1540 1540 1539 1538 1537 1536 1536 1535 1535 1535 1534 1534 1535 1535 1535 1535 1535 1535 1535 1534 1534 1534 1533 1533 1532
1551 1551 1552 1552 1552 1552 1552 1551 1551 1550 1549 1548 1548 1547 1546 1545 1544 1543 1542 1541 1540 1539 1538 1537 1537 1536 1535 1535 1535 1535 1535 1535 1535 1535 1535 1535 1535 1535 1534 1534 1534 1533 1532
1552 1553 1553 1553 1553 1553 1553 1553 1552 1552 1551 1550 1549 1548 1547 1546 1545 1544 1543 1542 1541 1540 1539 1538 1538 1537 1536 1536 1536 1536 1536 1536 1536 1536 1536 1536 1536 1535 1535 1535 1535 1534 1533
1553 1554 1554 1555 1555 1555 1555 1555 1554 1553 1552 1551 1550 1549 1548 1547 1546 1545 1544 1543 1542 1541 1540 1539 1539 1538 1537 1537 1537 1537 1537 1537 1537 1537 1537 1537 1537 1536 1536 1536 1535 1535 1534
1554 1554 1555 1556 1556 1556 1556 1556 1555 1555 1554 1553 1552 1551 1549 1548 1547 1546 1545 1544 1543 1542 1541 1540 1540 1539 1539 1538 1538 1538 1538 1538 1538 1538 1538 1538 1538 1538 1537 1537 1536 1536 1535
1555 1556 1557 1558 1558 1558 1558 1558 1557 1556 1555 1554 1553 1552 1551 1550 1548 1547 1546 1545 1544 1543 1542 1541 1541 1540 1540 1540 1540 1540 1540 1540 1540 1540 1540 1539 1539 1539 1538 1538 1538 1537 1536
1556 1557 1558 1559 1559 1559 1559 1559 1558 1557 1556 1555 1554 1553 1552 1551 1550 1548 1547 1546 1545 1544 1543 1542 1542 1541 1541 1541 1541 1541 1541 1541 1542 1541 1541 1541 1541 1540 1540 1540 1539 1538 1538
1557 1558 1559 1560 1560 1560 1560 1560 1559 1559 1558 1557 1555 1555 1553 1552 1551 1550 1548 1547 1546 1545 1544 1544 1543 1543 1543 1543 1543 1543 1543 1543 1543 1543 1543 1543 1542 1542 1541 1541 1540 1540 1539
1558 1559 1560 1561 1561 1561 1561 1561 1560 1560 1559 1558 1557 1556 1555 1553 1552 1551 1549 1548 1547 1546 1545 1545 1544 1544 1544 1544 1544 1545 1545 1545 1545 1545 1545 1544 1544 1543 1543 1542 1542 1541 1540
1559 1560 1561 1562 1562 1562 1562 1562 1562 1561 1560 1559 1558 1557 1556 1555 1553 1552 1551 1549 1549 1548 1547 1546 1546 1546 1546 1546 1546 1547 1547 1547 1547 1547 1546 1546 1545 1545 1544 1544 1543 1542 1541
1560 1561 1562 1563 1563 1563 1563 1563 1563 1562 1561 1560 1559 1558 1557 1556 1555 1554 1552 1551 1550 1549 1548 1548 1547 1547 1547 1547 1548 1548 1549 1549 1549 1548 1548 1548 1547 1546 1546 1545 1545 1544 1543
1560 1561 1562 1563 1564 1564 1564 1564 1564 1563 1562 1562 1561 1560 1559 1558 1556 1555 1554 1553 1552 1551 1550 1549 1549 1549 1549 1549 1549 1550 1550 1551 1551 1550 1550 1550 1549 1548 1548 1547 1546 1545 1544
1560 1562 1563 1564 1564 1565 1565 1565 1564 1564 1563 1563 1562 1561 1560 1559 1558 1557 1555 1554 1553 1552 1551 1551 1550 1550 1550 1551 1551 1552 1552 1552 1553 1553 1552 1552 1551 1550 1550 1549 1548 1547 1545
1560 1562 1563 1564 1565 1565 1565 1565 1565 1565 1565 1564 1563 1563 1562 1561 1560 1559 1557 1556 1555 1554 1554 1553 1552 1552 1552 1553 1553 1553 1554 1555 1555 1555 1554 1554 1553 1552 1552 1551 1550 1548 1547
1560 1561 1563 1564 1565 1566 1566 1566 1566 1566 1566 1565 1565 1564 1564 1563 1562 1561 1559 1558 1557 1556 1556 1555 1554 1554 1554 1554 1554 1555 1554 1555 1556 1557 1556 1556 1555 1555 1554 1553 1552 1551 1549
1560 1561 1563 1564 1565 1566 1566 1567 1567 1567 1566 1566 1566 1566 1565 1564 1563 1563 1562 1561 1560 1559 1558 1557 1557 1556 1556 1555 1555 1555 1556 1556 1557 1558 1559 1558 1558 1557 1556 1555 1554 1552 1551
1559 1561 1562 1564 1565 1566 1567 1567 1567 1567 1567 1567 1567 1567 1567 1566 1565 1564 1564 1563 1562 1561 1560 1559 1559 1558 1558 1557 1557 1557 1557 1557 1558 1558 1559 1560 1559 1559 1558 1557 1556 1554 1553
1558 1560 1562 1564 1565 1566 1567 1567 1567 1568 1568 1568 1568 1568 1568 1567 1567 1566 1565 1565 1564 1563 1562 1561 1561 1560 1560 1559 1559 1559 1559 1559 1559 1559 1560 1560 1560 1560 1560 1559 1557 1556 1555